EW6266 Weather Reports


time (UTC)temp
C
wind
direction
speed
KPH
gust
KPH
rain 1hr
cm
rain 24hr
cm
rain mn
cm
humidity
%
barometer
mb
20260509193042 20 235 1.6 11.3 0.00 0.00 0.00 49 1016.0
20260509191539 19 146 3.2 9.7 0.00 0.00 0.00 48 1016.3
20260509190038 19 327 4.8 8.0 0.00 0.00 0.00 51 1016.5
20260509184533 18 224 3.2 8.0 0.00 0.00 0.00 53 1016.5
20260509183031 18 238 4.8 12.9 0.00 0.00 0.00 58 1016.6
20260509181528 18 209 6.4 12.9 0.00 0.00 0.00 58 1016.8
20260509180026 17 202 4.8 16.1 0.00 0.00 0.00 60 1017.0
20260509174523 17 173 6.4 12.9 0.00 0.00 0.00 60 1016.9
20260509173020 16 214 6.4 16.1 0.00 0.00 0.00 63 1016.9
20260509171532 16 215 1.6 11.3 0.00 0.00 0.00 61 1016.9
20260509170025 15 224 1.6 11.3 0.00 0.00 0.00 65 1017.0
20260509164513 15 223 8.0 12.9 0.00 0.00 0.00 66 1017.3
20260509163013 15 227 3.2 11.3 0.00 0.00 0.00 66 1017.2
20260509161506 15 266 6.4 16.1 0.00 0.00 0.00 69 1017.3
20260509160004 14 244 4.8 14.5 0.00 0.00 0.00 70 1017.3
20260509154602 13 220 6.4 12.9 0.00 0.00 0.00 73 1017.4
20260509153100 13 187 4.8 11.3 0.00 0.00 0.00 73 1017.3
20260509151555 12 158 3.2 11.3 0.00 0.00 0.00 76 1017.2
20260509150052 11 155 4.8 11.3 0.00 0.00 0.00 80 1017.3
20260509144544 10 109 6.4 11.3 0.00 0.00 0.00 81 1017.3
20260509143040 9 160 3.2 8.0 0.00 0.00 0.00 85 1017.2
20260509141537 8 111 3.2 6.4 0.00 0.00 0.00 87 1017.1
20260509140032 7 111 4.8 6.4 0.00 0.00 0.00 88 1017.1
20260509134530 6 144 3.2 4.8 0.00 0.00 0.00 88 1017.2
20260509133029 5 257 0.0 1.6 0.00 0.00 0.00 89 1017.1
20260509131539 3 257 0.0 0.0 0.00 0.00 0.00 89 1017.1
20260509130033 3 257 0.0 3.2 0.00 0.00 0.00 90 1017.1
20260509124525 3 258 3.2 6.4 0.00 0.00 0.00 87 1017.0
20260509123024 3 197 0.0 3.2 0.00 0.00 0.00 90 1017.0
20260509121527 3 197 0.0 3.2 0.00 0.00 0.00 88 1016.9
20260509120022 3 192 4.8 6.4 0.00 0.00 0.00 90 1016.7
20260509114526 3 175 1.6 6.4 0.00 0.00 0.00 87 1016.8
20260509113016 4 201 0.0 4.8 0.00 0.00 0.00 87 1016.8
20260509111512 5 201 0.0 0.0 0.00 0.00 0.00 86 1016.9
20260509110012 5 201 0.0 1.6 0.00 0.00 0.00 88 1016.8
20260509104511 5 201 0.0 3.2 0.00 0.00 0.00 89 1016.8
20260509103009 5 201 0.0 3.2 0.00 0.00 0.00 87 1016.7
20260509101506 5 209 3.2 4.8 0.00 0.00 0.00 86 1016.6
20260509100005 6 215 3.2 8.0 0.00 0.00 0.00 85 1016.4
20260509094600 6 119 3.2 6.4 0.00 0.00 0.00 85 1016.5
20260509093100 6 180 0.0 4.8 0.00 0.00 0.00 84 1016.5
20260509091556 7 198 1.6 8.0 0.00 0.00 0.00 81 1016.3
20260509090051 8 269 8.0 16.1 0.00 0.00 0.00 81 1016.2
20260509084551 8 281 9.7 16.1 0.00 0.00 0.00 81 1016.1
20260509083049 8 272 11.3 17.7 0.00 0.00 0.00 80 1016.1
20260509081550 9 254 8.0 17.7 0.00 0.00 0.00 79 1016.1
20260509080045 9 280 12.9 19.3 0.00 0.00 0.00 79 1015.8
20260509074553 9 274 11.3 19.3 0.00 0.00 0.00 78 1016.0
20260509073040 8 271 9.7 16.1 0.00 0.00 0.00 79 1015.8
20260509071537 9 272 9.7 16.1 0.00 0.00 0.00 78 1015.7
20260509070035 9 276 9.7 20.9 0.00 0.00 0.00 78 1015.5
20260509064540 9 288 4.8 11.3 0.00 0.00 0.00 76 1015.5
20260509063030 10 246 8.0 19.3 0.00 0.00 0.00 74 1015.4
20260509061530 10 296 14.5 22.5 0.00 0.00 0.00 72 1015.2
20260509060029 11 268 11.3 22.5 0.00 0.00 0.00 71 1015.4
20260509054528 11 296 14.5 20.9 0.00 0.00 0.00 69 1015.1
20260509053027 11 273 9.7 20.9 0.00 0.00 0.00 68 1015.2
20260509051533 12 273 16.1 24.1 0.00 0.00 0.00 66 1014.9
20260509050023 12 267 14.5 20.9 0.00 0.00 0.00 65 1014.7
20260509044522 12 276 14.5 24.1 0.00 0.00 0.00 64 1014.6
20260509043020 11 254 12.9 17.7 0.00 0.00 0.00 67 1014.4
20260509041518 11 261 4.8 11.3 0.00 0.00 0.00 66 1014.4
20260509040016 11 270 4.8 11.3 0.00 0.00 0.00 64 1014.1
20260509034535 12 258 4.8 12.9 0.00 0.00 0.00 61 1013.7
20260509033013 12 261 6.4 12.9 0.00 0.00 0.00 59 1013.5
20260509031511 12 258 4.8 12.9 0.00 0.00 0.00 58 1013.2
20260509030010 15 248 3.2 12.9 0.00 0.00 0.00 53 1013.1
20260509024508 16 248 9.7 20.9 0.00 0.00 0.00 47 1012.8
20260509023008 16 257 11.3 24.1 0.00 0.00 0.00 45 1012.6
20260509021508 17 258 19.3 30.6 0.00 0.00 0.00 41 1012.5
20260509020005 18 265 16.1 30.6 0.00 0.00 0.00 40 1012.3
20260509014505 18 258 22.5 33.8 0.00 0.00 0.00 38 1012.2
20260509013004 19 258 19.3 35.4 0.00 0.00 0.00 37 1012.2
20260509011502 19 263 22.5 37.0 0.00 0.00 0.00 35 1012.1
20260509010003 20 271 24.1 37.0 0.00 0.00 0.00 36 1011.8
20260509004501 20 266 25.7 38.6 0.00 0.00 0.00 35 1012.0
20260509003002 20 280 22.5 41.8 0.00 0.00 0.00 35 1011.9
20260509001602 20 261 27.4 37.0 0.00 0.00 0.00 31 1011.9
20260509000100 20 253 25.7 38.6 0.00 0.00 0.00 30 1011.7
20260508234606 20 239 24.1 37.0 0.00 0.00 0.00 30 1011.8
20260508233059 20 270 25.7 40.2 0.00 0.00 0.00 28 1012.0
20260508231559 20 265 25.7 41.8 0.00 0.00 0.00 29 1012.0
20260508230058 21 257 24.1 40.2 0.00 0.00 0.00 27 1011.9
20260508224559 20 257 22.5 37.0 0.00 0.00 0.00 25 1012.0
20260508223057 21 267 22.5 33.8 0.00 0.00 0.00 23 1011.9
20260508221557 21 252 25.7 38.6 0.00 0.00 0.00 21 1012.0
20260508220059 21 263 25.7 37.0 0.00 0.00 0.00 21 1012.1
20260508214604 20 275 22.5 40.2 0.00 0.00 0.00 28 1012.1
20260508213052 20 254 29.0 48.3 0.00 0.00 0.00 26 1012.2
20260508211550 18 272 20.9 40.2 0.00 0.00 0.00 38 1012.1
20260508210053 19 272 19.3 38.6 0.00 0.00 0.00 43 1012.1
20260508204550 21 276 29.0 45.1 0.00 0.00 0.00 36 1011.9
20260508203048 19 246 25.7 38.6 0.00 0.00 0.00 41 1011.9
20260508201546 19 236 20.9 33.8 0.00 0.00 0.00 45 1011.9
20260508200045 21 290 17.7 32.2 0.00 0.00 0.00 45 1011.9
20260508194542 20 282 24.1 37.0 0.00 0.00 0.00 44 1011.8